Orbital Elements at Epoch 2459000.5 (2020-May-31.0) TDB
Reference: JPL 29 (heliocentric ecliptic J2000)
Element | Value | Uncertainty (1-sigma) | Units |
e | .06862401859528973 | 4.1804e-08 | |
a | 2.738414866827544 | 1.2398e-08 | au |
q | 2.550493834084752 | 1.0992e-07 | au |
i | 4.244843124911172 | 3.7933e-06 | deg |
node | 98.26584747186627 | 6.1378e-05 | deg |
peri | 117.6469040109316 | 6.9589e-05 | deg |
M | 75.07159480411516 | 3.2103e-05 | deg |
tp | 2458655.340020918509 (2019-Jun-20.84002092) | 0.00014816 | TDB |
period | 1655.187861581505 4.53 | 1.1241e-05 3.078e-08 | d yr |
n | .2174979700830006 | 1.4771e-09 | deg/d |
Q | 2.926335899570335 | 1.3249e-08 | au |
|
| | Orbit Determination Parameters
Additional Information
|